• In Uzbekistan
  • List of Countries
  • For 7 days
  • Water Temperature
  • Satellite Maps
  • Weather Map
  • Weather Widgets
  • user-avatar
    Login

    Hourly Weather Budapest

    Today, 18 October, Wednesday

    Time Temperature Precipitation Wind Pressure Humidity
    00:00 +18°C° 0 mm 1 mps 757 mmHg 67%
    01:00 +16°C° 0 mm 1 mps 757 mmHg 68%
    02:00 +16°C° 0 mm 1 mps 757 mmHg 70%
    03:00 +15°C° 0 mm 1 mps 756 mmHg 71%
    04:00 +15°C° 0 mm 1 mps 756 mmHg 72%
    05:00 +15°C° 0 mm 2 mps 756 mmHg 73%
    06:00 +15°C° 0 mm 2 mps 756 mmHg 73%
    07:00 +15°C° 0 mm 2 mps 756 mmHg 73%
    08:00 +17°C° 0 mm 2 mps 755 mmHg 66%
    09:00 +19°C° 0 mm 2 mps 755 mmHg 59%
    10:00 +20°C° 0 mm 2 mps 755 mmHg 52%
    11:00 +23°C° 0 mm 2 mps 755 mmHg 49%
    12:00 +24°C° 0 mm 2 mps 754 mmHg 45%
    13:00 +25°C° 0 mm 2 mps 754 mmHg 41%
    14:00 +25°C° 0 mm 2 mps 754 mmHg 42%
    15:00 +25°C° 0 mm 2 mps 753 mmHg 43%
    16:00 +24°C° 0 mm 1 mps 753 mmHg 44%
    17:00 +23°C° 0 mm 2 mps 753 mmHg 47%
    18:00 +20°C° 0 mm 2 mps 753 mmHg 50%
    19:00 +19°C° 0 mm 2 mps 753 mmHg 53%
    20:00 +18°C° 0 mm 2 mps 753 mmHg 54%
    21:00 +19°C° 0 mm 1 mps 753 mmHg 55%
    22:00 +18°C° 0 mm 1 mps 753 mmHg 56%
    23:00 +18°C° 0 mm 1 mps 753 mmHg 56%

    Tomorrow, 19 October, Thursday

    Time Temperature Precipitation Wind Pressure Humidity
    00:00 +16°C° 0 mm 2 mps 753 mmHg 57%
    01:00 +16°C° 0 mm 2 mps 753 mmHg 58%
    02:00 +15°C° 0 mm 2 mps 753 mmHg 59%
    03:00 +15°C° 0 mm 2 mps 752 mmHg 61%
    04:00 +14°C° 0 mm 2 mps 752 mmHg 63%
    05:00 +14°C° 0 mm 2 mps 752 mmHg 64%
    06:00 +13°C° 0 mm 2 mps 753 mmHg 66%
    07:00 +13°C° 0 mm 2 mps 753 mmHg 67%
    08:00 +15°C° 0 mm 2 mps 753 mmHg 61%
    09:00 +17°C° 0 mm 2 mps 753 mmHg 56%
    10:00 +19°C° 0 mm 2 mps 753 mmHg 50%
    11:00 +20°C° 0 mm 2 mps 753 mmHg 46%
    12:00 +23°C° 0 mm 2 mps 753 mmHg 42%
    13:00 +24°C° 0 mm 2 mps 752 mmHg 39%
    14:00 +23°C° 0 mm 2 mps 752 mmHg 41%
    15:00 +23°C° 0 mm 2 mps 752 mmHg 42%
    16:00 +22°C° 0 mm 1 mps 752 mmHg 44%
    17:00 +21°C° 0 mm 1 mps 752 mmHg 48%
    18:00 +19°C° 0 mm 1 mps 752 mmHg 52%
    19:00 +18°C° 0 mm 1 mps 752 mmHg 55%
    20:00 +18°C° 0 mm 1 mps 752 mmHg 58%
    21:00 +16°C° 0 mm 1 mps 753 mmHg 60%
    22:00 +16°C° 0 mm 1 mps 753 mmHg 63%
    23:00 +15°C° 0 mm 1 mps 753 mmHg 65%

    Day after tomorrow, 20 October, Friday

    Time Temperature Precipitation Wind Pressure Humidity
    00:00 +15°C° 0 mm 1 mps 753 mmHg 67%
    01:00 +14°C° 0 mm 1 mps 753 mmHg 69%
    02:00 +14°C° 0 mm 1 mps 753 mmHg 70%
    03:00 +13°C° 0 mm 0 mps 753 mmHg 72%
    04:00 +13°C° 0 mm 0 mps 753 mmHg 73%
    05:00 +13°C° 0 mm 0 mps 753 mmHg 73%
    06:00 +13°C° 0 mm 0 mps 753 mmHg 73%
    07:00 +13°C° 0 mm 0 mps 754 mmHg 73%
    08:00 +15°C° 0 mm 1 mps 754 mmHg 66%
    09:00 +18°C° 0 mm 1 mps 754 mmHg 59%
    10:00 +20°C° 0 mm 1 mps 754 mmHg 52%
    11:00 +21°C° 0 mm 1 mps 754 mmHg 48%
    12:00 +21°C° 0 mm 2 mps 754 mmHg 44%
    13:00 +23°C° 0 mm 2 mps 754 mmHg 41%
    14:00 +23°C° 0 mm 2 mps 754 mmHg 42%
    15:00 +23°C° 0 mm 1 mps 753 mmHg 43%
    16:00 +22°C° 0 mm 1 mps 753 mmHg 44%
    17:00 +21°C° 0 mm 1 mps 754 mmHg 47%
    18:00 +20°C° 0 mm 1 mps 754 mmHg 50%
    19:00 +18°C° 0 mm 1 mps 754 mmHg 53%
    20:00 +18°C° 0 mm 1 mps 754 mmHg 55%
    21:00 +16°C° 0 mm 1 mps 755 mmHg 57%
    22:00 +16°C° 0 mm 1 mps 755 mmHg 60%
    23:00 +15°C° 0 mm 1 mps 755 mmHg 61%

    21 October, Saturday

    Time Temperature Precipitation Wind Pressure Humidity
    00:00 +15°C° 0 mm 1 mps 755 mmHg 63%
    01:00 +15°C° 0 mm 1 mps 755 mmHg 65%
    02:00 +14°C° 0 mm 1 mps 755 mmHg 67%
    03:00 +14°C° 0 mm 1 mps 755 mmHg 68%
    04:00 +14°C° 0 mm 1 mps 755 mmHg 70%
    05:00 +14°C° 0 mm 1 mps 755 mmHg 71%
    06:00 +14°C° 0 mm 1 mps 755 mmHg 72%
    07:00 +13°C° 0 mm 1 mps 755 mmHg 73%
    08:00 +15°C° 0 mm 1 mps 755 mmHg 67%
    09:00 +18°C° 0 mm 1 mps 755 mmHg 61%
    10:00 +20°C° 0 mm 1 mps 756 mmHg 55%
    11:00 +21°C° 0 mm 1 mps 755 mmHg 52%
    12:00 +22°C° 0 mm 1 mps 755 mmHg 50%
    13:00 +23°C° 0 mm 1 mps 755 mmHg 47%
    14:00 +22°C° 0 mm 1 mps 754 mmHg 49%
    15:00 +22°C° 0 mm 1 mps 754 mmHg 51%
    16:00 +19°C° 0 mm 0 mps 754 mmHg 52%
    17:00 +18°C° 0 mm 0 mps 754 mmHg 55%
    18:00 +17°C° 0 mm 0 mps 754 mmHg 57%
    19:00 +16°C° 0 mm 0 mps 755 mmHg 60%
    20:00 +16°C° 0 mm 0 mps 755 mmHg 62%
    21:00 +15°C° 0 mm 0 mps 755 mmHg 63%
    22:00 +15°C° 0 mm 0 mps 755 mmHg 65%
    23:00 +15°C° 0 mm 0 mps 755 mmHg 67%

    22 October, Sunday

    Time Temperature Precipitation Wind Pressure Humidity
    00:00 +14°C° 0 mm 0 mps 755 mmHg 68%
    01:00 +14°C° 0 mm 0 mps 755 mmHg 70%
    02:00 +14°C° 0 mm 1 mps 755 mmHg 71%
    03:00 +14°C° 0 mm 1 mps 754 mmHg 72%
    04:00 +14°C° 0 mm 1 mps 754 mmHg 74%
    05:00 +14°C° 0 mm 1 mps 754 mmHg 74%
    06:00 +14°C° 0 mm 1 mps 754 mmHg 74%
    07:00 +14°C° 0 mm 1 mps 754 mmHg 74%
    08:00 +15°C° 0 mm 1 mps 754 mmHg 68%
    09:00 +18°C° 0 mm 1 mps 754 mmHg 62%
    10:00 +18°C° 0 mm 2 mps 754 mmHg 55%
    11:00 +19°C° 0 mm 2 mps 753 mmHg 52%
    12:00 +20°C° 0 mm 2 mps 753 mmHg 49%
    13:00 +21°C° 0 mm 2 mps 752 mmHg 46%
    14:00 +22°C° 0 mm 1 mps 752 mmHg 47%
    15:00 +21°C° 0 mm 1 mps 751 mmHg 49%
    16:00 +21°C° 0 mm 1 mps 751 mmHg 50%
    17:00 +20°C° 0 mm 1 mps 751 mmHg 53%
    18:00 +18°C° 0 mm 2 mps 751 mmHg 56%
    19:00 +17°C° 0 mm 2 mps 751 mmHg 58%
    20:00 +17°C° 0.1 mm 3 mps 751 mmHg 61%
    21:00 +16°C° 0.1 mm 3 mps 751 mmHg 64%
    22:00 +15°C° 0.1 mm 4 mps 751 mmHg 67%
    23:00 +14°C° 0.4 mm 4 mps 752 mmHg 70%

    23 October, Monday

    Time Temperature Precipitation Wind Pressure Humidity
    00:00 +14°C° 0.4 mm 5 mps 752 mmHg 72%
    01:00 +13°C° 0.4 mm 5 mps 752 mmHg 75%
    02:00 +13°C° 0.6 mm 5 mps 752 mmHg 77%
    03:00 +13°C° 0.6 mm 5 mps 752 mmHg 79%
    04:00 +13°C° 0.6 mm 5 mps 752 mmHg 80%
    05:00 +11°C° 0.5 mm 6 mps 752 mmHg 81%
    06:00 +11°C° 0.5 mm 6 mps 753 mmHg 81%
    07:00 +11°C° 0.5 mm 6 mps 753 mmHg 81%
    08:00 +11°C° 0.7 mm 6 mps 754 mmHg 81%
    09:00 +11°C° 0.7 mm 6 mps 754 mmHg 81%
    10:00 +10°C° 0.7 mm 6 mps 754 mmHg 81%
    11:00 +10°C° 0.8 mm 6 mps 755 mmHg 81%
    12:00 +10°C° 0.8 mm 6 mps 755 mmHg 81%
    13:00 +10°C° 0.8 mm 7 mps 755 mmHg 81%
    14:00 +10°C° 0.5 mm 6 mps 755 mmHg 79%
    15:00 +10°C° 0.5 mm 6 mps 756 mmHg 78%
    16:00 +10°C° 0.5 mm 5 mps 756 mmHg 77%
    17:00 +10°C° 0.1 mm 5 mps 757 mmHg 76%
    18:00 +11°C° 0.1 mm 4 mps 757 mmHg 76%
    19:00 +11°C° 0.1 mm 4 mps 758 mmHg 76%
    20:00 +10°C° 0 mm 4 mps 758 mmHg 76%
    21:00 +10°C° 0 mm 3 mps 758 mmHg 77%
    22:00 +9°C° 0 mm 3 mps 759 mmHg 77%
    23:00 +9°C° 0 mm 3 mps 759 mmHg 78%
    Show more